{"data":{"norad_id":48239,"intl_designator":"2021-031AF","name":"ONEWEB-0191","alt_names":[],"object_type":"PAYLOAD","status":"ACTIVE","operator":null,"country":"UK","launch_date":"2021-04-25","launch_site_code":"VOSTO","launch_vehicle":null,"mission":null,"orbit_class":"UNKNOWN","rcs_meters":null,"size_class":null,"mass_kg":null,"dimensions":null,"purposes":["comms"],"wikipedia_slug":null,"has_3d_model":false,"image_url":null,"decayed_at":null,"tle_current":{"epoch":"2026-05-24T22:34:50.268576Z","epoch_age_seconds":83306,"freshness":"FRESH","line1":"1 48239U 21031AF  26144.94085959  .00000218  00000+0  55229-3 0  9995","line2":"2 48239  87.8945 294.3319 0002018  99.3319 260.8039 13.14501317245112","mean_motion":13.14501317,"eccentricity":0.0002018,"inclination_deg":87.8945,"raan_deg":294.3319,"arg_perigee_deg":99.3319,"mean_anomaly_deg":260.8039,"bstar":0.00055229,"rev_number":24511,"period_min":109.54724665369,"perigee_km":1204.2656209977,"apogee_km":1207.3264963802,"semimajor_km":7583.933058689,"source":"CELESTRAK","updated_at":"2026-05-25T13:38:22.439642Z"}}}